SCP
0 0 0 0 0 0 0 0 3 2 1 0 0 0 0 0 0 0 0 0 0 0 0 0 0 0 0 0 0 0 0 0 0 0 0 0 0 0 0 0 0 0 1
0 0 0 0 0 0 1 1 1 1 0 0 0 0 0 0 0 0 0 0 0 0 0 0 0 0 0 0 0 0 0 0 0 0 0 0 0 0 0 0 0 0 0
0 0 0 0 1 2 2 2 0 0 0 0 0 0 0 0 0 0 0 0 0 0 0 0 0 0 0 0 0 0 0 0 0 0 0 0 0 0 0 0 0 0 0
0 0 0 0 2 2 1 0 0 0 0 0 0 0 0 0 0 -0 0 0 0 0 0 0 0 0 0 0 0 0 0 0 0 0 0 0 0 0 0 0 0 0 0
0 0 0 4 2 1 0 0 0 0 0 0 0 0 0 0 0 0 0 0 0 0 0 0 0 0 0 0 0 0 0 0 0 0 0 0 0 0 0 0 0 0 0
0 0 2 1 1 0 0 0 0 0 0 0 0 0 0 0 0 0 0 0 0 0 0 0 0 0 0 0 0 0 0 0 0 0 0 0 0 0 0 0 0 0 0
1 2 0 0 0 0 0 0 0 0 0 0 0 0 0 0 -0 0 -0 0 0 0 0 0 0 0 0 0 0 0 0 0 0 0 0 0 0 0 0 0 0 0 0
2 1 0 0 0 0 0 0 0 0 0 0 0 0 0 0 0 0 0 0 0 0 0 0 0 0 0 0 0 0 0 0 0 0 0 0 0 0 0 0 0 0 0
1 1 0 0 0 0 0 0 0 0 0 0 0 0 0 0 0 0 0 0 0 0 0 0 0 0 0 0 0 0 0 0 0 0 0 0 0 0 0 0 0 0 0
0 0 0 0 0 0 0 0 0 0 0 0 0 0 0 0 0 0 0 0 0 0 0 0 0 0 0 0 0 0 0 0 0 0 0 0 0 0 0 0 0 0 0
0 0 0 0 0 0 0 0 0 0 0 0 0 0 0 0 0 0 0 0 0 0 0 0 0 0 0 0 0 0 0 0 0 0 0 0 0 0 0 0 0 0 0
0 0 0 0 0 0 0 0 0 0 0 0 0 0 0 0 0 0 0 0 0 0 0 0 0 0 0 0 0 0 0 0 0 0 0 0 0 0 0 0 0 0 0
0 0 0 0 0 0 0 0 0 0 0 0 0 0 0 0 0 0 0 0 0 0 0 0 0 0 0 0 0 0 0 0 0 0 0 0 0 0 0 0 0 0 0
0 0 0 0 0 0 0 0 0 0 0 0 0 0 0 0 0 0 0 0 0 0 0 0 0 0 0 0 0 0 0 0 0 0 0 0 0 0 0 0 0 0 0
0 0 0 0 0 0 0 0 0 0 0 0 0 0 0 0 0 0 0 0 0 0 0 0 0 0 0 0 0 0 0 0 0 0 0 0 0 0 0 0 0 0 0
0 0 0 0 0 0 0 0 0 0 0 0 0 0 0 0 0 0 0 0 0 0 0 0 0 0 0 0 0 0 0 0 0 0 0 0 0 0 0 0 0 0 0
0 0 0 0 0 0 0 0 0 0 0 0 0 0 -0 0 0 0 0 0 0 0 0 0 0 0 0 0 0 0 0 0 0 0 0 0 0 0 0 0 0 0 0
0 0 0 0 0 0 0 0 0 0 0 0 0 0 0 0 0 0 0 0 0 0 0 0 0 0 0 0 0 0 0 0 0 0 0 0 0 0 0 0 0 0 0
0 0 0 0 0 0 0 0 0 0 0 0 0 0 0 0 0 0 0 0 0 0 0 0 0 0 0 0 0 0 0 0 0 0 0 0 0 0 0 0 0 0 0
0 0 0 0 0 0 0 0 0 0 0 0 0 0 0 0 0 0 0 0 0 0 0 0 0 0 0 0 0 0 0 0 0 0 0 0 0 0 0 0 0 0 0
0 0 0 0 0 0 0 0 0 0 0 0 0 0 0 0 0 0 0 0 0 0 0 0 0 0 0 0 0 0 0 0 0 0 0 0 0 0 0 0 0 0 -0
0 0 0 0 0 0 0 0 0 0 0 0 0 0 0 0 0 0 0 0 0 0 0 0 0 0 0 0 0 0 0 0 0 0 0 0 0 0 0 0 0 0 0
0 0 0 0 0 0 0 0 0 0 0 0 0 0 0 0 0 0 0 0 0 0 0 0 0 0 0 0 0 0 0 0 0 0 0 0 0 0 0 0 0 0 0
0 0 0 0 0 0 0 0 0 0 0 0 0 0 0 0 0 0 0 0 0 0 0 0 0 0 0 0 0 0 0 0 0 0 0 0 0 0 0 0 0 0 0
0 0 0 0 0 0 0 0 0 0 0 0 0 0 0 0 0 0 0 0 0 0 0 0 0 0 0 0 0 0 0 0 0 0 0 0 0 0 0 0 0 -0 0
0 0 0 0 0 0 0 0 0 0 0 0 0 0 0 0 0 0 0 0 0 0 0 0 0 0 0 0 0 0 0 0 0 0 0 0 0 0 0 0 0 0 0
Wind_Speed_500mb
21 18 16 11 15 11 9 9 5 11 10 12 13 16 18 16 20 19 22 43 49 56 56 50 56 54 53 51 46 47 43 41 40 38 40 42 41 40 44 45 47 46 44
32 19 17 12 14 11 12 10 16 15 15 17 16 19 27 22 21 29 22 26 40 53 62 63 51 61 55 52 45 43 46 44 40 41 42 43 44 46 46 45 46 47 43
39 25 19 20 18 20 22 25 13 9 4 5 13 15 20 24 21 32 27 25 23 36 52 64 67 68 56 50 41 35 38 42 43 40 44 47 46 43 40 42 42 44 42
38 31 22 18 22 19 11 12 11 4 3 8 9 9 19 17 29 23 22 32 29 29 28 44 65 57 56 64 45 39 37 43 40 42 43 44 43 42 41 40 39 40 42
31 25 21 35 31 11 10 6 9 7 1 5 11 5 22 11 27 27 38 38 25 37 36 40 47 39 52 61 52 44 41 42 40 37 41 45 40 38 36 37 37 40 41
27 25 39 43 31 20 17 28 25 20 10 7 8 11 35 42 33 37 30 31 24 38 33 40 48 28 39 50 43 56 53 43 43 42 45 44 41 37 36 34 34 39 41
33 44 49 42 32 27 32 28 22 17 12 11 22 36 36 36 43 31 32 41 34 34 37 39 37 33 32 36 36 53 46 51 44 44 42 43 42 39 36 34 33 36 38
44 47 43 30 32 33 30 27 28 31 29 27 38 35 35 44 16 34 39 33 28 48 37 35 36 33 37 34 36 40 55 53 53 47 37 34 35 35 38 33 31 33 35
46 45 38 40 39 30 34 34 31 16 18 18 18 19 10 10 41 9 35 23 52 37 44 41 38 32 33 35 34 33 50 60 52 49 47 39 38 36 39 37 33 35 36
45 44 43 41 36 31 26 25 17 13 9 13 22 17 16 23 17 33 26 43 34 53 45 41 40 34 34 33 35 39 53 62 56 50 50 48 44 40 41 40 37 36 37
42 36 35 31 25 27 28 24 24 15 10 18 24 22 23 22 27 40 52 56 52 43 42 39 32 34 34 38 37 41 60 64 54 54 55 51 47 43 40 41 38 38 39
28 31 28 25 23 27 27 22 11 13 18 25 31 32 23 25 28 32 42 50 49 45 47 39 36 37 38 35 40 54 69 58 66 55 58 57 49 46 43 41 38 36 39
36 31 35 34 36 28 15 13 11 15 23 29 34 33 30 24 25 31 34 46 47 44 36 34 35 33 39 40 40 57 60 52 66 67 66 55 50 49 46 42 40 38 37
34 40 35 30 25 20 13 5 16 18 30 32 35 35 31 26 23 26 32 39 47 42 36 39 29 37 41 42 48 56 47 54 60 59 53 55 57 53 47 46 43 39 36
34 38 35 25 18 10 0 11 20 25 30 36 35 32 30 23 23 26 26 31 37 49 44 41 43 39 43 44 51 52 61 63 57 49 61 59 55 53 49 47 45 41 33
40 38 27 23 17 7 4 15 21 33 33 30 29 34 28 22 26 24 28 29 31 39 46 40 42 44 43 43 43 59 62 58 47 44 58 61 55 54 48 45 40 41 36
38 31 25 20 14 3 14 25 30 31 32 34 32 26 25 27 26 27 29 28 32 33 40 43 42 43 45 48 57 54 58 53 48 46 49 59 54 50 44 40 38 41 37
32 27 20 14 7 7 21 27 20 30 32 31 22 22 23 25 29 28 28 33 35 36 39 49 45 46 46 51 54 55 62 54 60 47 55 48 52 43 46 41 40 33 35
26 21 16 5 4 16 22 26 25 28 28 21 23 23 25 26 27 29 32 33 37 36 36 42 49 44 48 50 54 56 59 58 53 55 50 41 35 42 43 36 29 30 35
23 23 16 4 15 23 29 24 22 20 22 19 21 23 25 25 31 34 32 33 35 41 39 40 45 50 47 47 51 60 69 66 64 51 40 44 47 37 35 31 38 36 39
23 17 10 9 15 26 23 27 22 18 19 21 21 21 24 34 39 41 38 36 40 37 36 37 40 46 46 53 63 70 84 85 61 42 43 51 44 30 30 31 35 41 48
21 10 2 7 16 24 24 24 27 20 20 18 20 21 24 21 41 41 39 44 34 40 43 41 40 46 53 65 67 79 86 69 57 42 58 55 41 34 26 30 37 46 48
5 1 6 11 18 19 26 25 22 15 18 24 21 23 24 29 42 46 47 36 30 31 33 35 35 48 59 71 74 83 73 54 55 60 49 52 37 34 24 32 38 49 44
5 4 3 9 14 18 18 20 21 31 23 25 20 24 27 33 43 45 43 34 30 23 32 33 42 51 54 60 69 72 56 51 56 62 38 49 25 33 30 31 28 35 40
7 8 4 4 9 16 24 24 18 18 18 23 28 38 38 38 43 41 39 36 37 32 34 37 38 41 54 61 62 49 43 52 64 67 40 20 30 36 26 14 26 36 38
14 15 13 15 19 21 25 26 20 20 16 16 22 34 43 45 42 38 36 38 44 48 50 46 38 42 48 41 41 40 44 49 51 54 25 45 36 19 24 8 28 35 36
Wind_Direction_500mb
202 203 211 203 225 242 263 279 260 295 292 314 326 328 322 334 329 325 318 312 322 326 327 325 326 326 323 318 318 314 311 305 301 300 297 294 293 295 291 287 291 294 291
225 209 217 217 225 236 245 246 250 249 303 326 338 334 337 328 336 328 332 323 328 327 326 327 330 330 322 318 318 314 310 310 304 299 300 298 296 291 291 291 289 292 293
228 197 209 214 225 224 219 215 250 273 339 351 346 354 340 325 322 331 346 328 326 332 322 332 326 327 331 337 327 317 316 310 307 304 300 298 300 300 298 293 290 290 289
225 217 217 224 225 213 218 235 231 193 61 34 31 6 340 348 319 339 320 324 327 331 332 323 316 335 336 332 331 323 321 318 314 308 304 301 304 304 299 294 291 287 287
214 207 218 216 218 200 196 180 201 152 47 71 39 38 11 1 334 324 321 324 329 320 330 319 322 342 330 325 335 331 329 318 319 313 309 306 307 305 304 299 291 287 282
210 193 219 230 218 209 224 235 229 225 250 338 73 14 20 360 328 304 311 324 322 311 322 323 330 321 316 321 331 324 324 322 323 316 309 308 308 309 307 299 291 285 282
209 215 225 235 221 235 245 242 245 258 277 315 299 295 336 355 317 311 332 315 320 300 339 318 327 321 321 324 322 314 320 332 327 314 312 309 310 308 306 307 298 291 286
216 221 232 225 231 238 243 249 262 264 270 299 319 319 326 325 272 296 307 311 320 314 319 321 326 316 322 326 318 330 314 331 337 337 335 324 315 309 307 301 303 292 286
223 232 232 239 239 246 261 263 255 256 274 301 320 342 353 297 312 305 317 310 322 321 324 317 324 316 321 322 320 327 312 328 335 341 341 326 319 317 306 299 295 295 287
229 234 232 239 238 238 249 230 205 260 278 319 329 351 315 294 313 314 305 314 313 312 320 323 324 320 320 319 322 321 310 327 333 341 344 338 325 313 311 303 294 290 291
233 240 232 233 245 236 219 224 236 242 306 331 327 330 320 317 307 303 306 315 321 322 320 323 318 322 318 323 323 315 311 327 332 336 339 336 333 323 311 307 302 289 285
217 217 216 219 212 202 216 220 245 292 299 320 319 320 317 314 316 312 310 314 316 319 321 324 322 324 323 323 324 313 316 333 331 333 330 331 332 328 319 306 301 295 282
217 225 228 220 213 222 206 242 247 295 312 314 318 321 319 313 310 309 311 312 315 319 321 320 323 321 323 323 320 315 327 327 318 320 321 323 329 327 324 319 305 296 291
222 219 221 200 184 183 219 279 297 300 310 317 317 317 317 317 315 315 310 312 314 317 319 322 316 326 320 320 320 314 323 317 313 323 326 324 326 324 325 321 319 303 291
219 211 186 170 188 178 148 294 287 307 315 318 322 322 323 318 318 303 308 309 311 313 313 315 312 314 315 315 322 325 318 314 318 330 320 319 322 322 322 321 319 320 302
205 170 168 180 163 141 225 283 317 312 320 325 328 318 322 322 315 316 307 304 303 303 305 307 309 313 312 318 322 317 314 320 326 325 312 312 323 320 316 317 320 321 324
171 156 149 142 130 85 307 307 305 310 324 327 329 325 330 322 318 317 307 310 304 303 303 307 309 313 321 324 318 323 324 321 319 314 318 311 314 321 317 317 318 320 320
146 146 131 122 119 284 307 299 316 313 322 331 325 323 323 324 320 326 313 309 311 309 309 312 316 318 317 324 323 325 321 325 316 320 308 326 320 315 317 322 320 324 328
118 112 116 159 302 294 307 312 317 319 329 330 320 325 327 326 323 313 318 319 313 305 311 314 310 317 323 321 322 322 320 322 323 323 325 316 302 307 314 329 334 328 312
143 134 141 215 276 283 282 296 308 321 313 317 324 332 326 324 320 321 323 322 311 311 319 314 313 319 320 321 320 322 324 328 327 332 336 323 325 321 335 337 316 317 316
141 139 155 236 265 284 308 313 315 314 324 332 334 331 322 333 323 329 321 313 316 315 316 317 315 316 318 320 321 320 320 327 332 338 328 337 338 352 339 323 308 312 315
148 134 161 292 302 316 321 332 340 342 326 336 336 329 330 330 298 303 300 306 321 322 316 316 311 308 311 317 316 315 321 324 324 335 332 338 346 338 336 323 312 311 318
125 332 316 313 307 336 347 347 346 337 350 335 346 321 333 323 325 327 328 336 330 319 318 318 312 314 311 313 314 316 319 317 316 321 328 320 332 330 325 314 311 312 319
152 97 13 24 317 1 10 8 12 15 343 342 343 339 344 330 328 332 334 339 343 348 331 318 305 306 311 310 311 316 315 318 314 318 320 305 316 330 335 316 300 317 320
107 98 58 71 354 30 25 28 42 19 333 342 331 335 346 342 341 342 347 344 346 337 320 320 323 326 309 309 313 319 325 317 320 321 336 299 322 320 325 316 338 325 327
100 92 77 61 36 15 21 25 24 7 6 6 343 334 336 333 343 349 355 351 344 336 339 337 329 305 312 325 339 338 332 324 322 325 306 319 326 353 328 326 344 333 336
Wind_Speed_850mb
21 18 16 11 15 11 9 9 5 11 10 12 13 16 18 16 20 19 22 43 49 56 56 50 56 54 53 51 46 47 43 41 40 38 40 42 41 40 44 45 47 46 44
32 19 17 12 14 11 12 10 16 15 15 17 16 19 27 22 21 29 22 26 40 53 62 63 51 61 55 52 45 43 46 44 40 41 42 43 44 46 46 45 46 47 43
39 25 19 20 18 20 22 25 13 9 4 5 13 15 20 24 21 32 27 25 23 36 52 64 67 68 56 50 41 35 38 42 43 40 44 47 46 43 40 42 42 44 42
38 31 22 18 22 19 11 12 11 4 3 8 9 9 19 17 29 23 22 32 29 29 28 44 65 57 56 64 45 39 37 43 40 42 43 44 43 42 41 40 39 40 42
31 25 21 35 31 11 10 6 9 7 1 5 11 5 22 11 27 27 38 38 25 37 36 40 47 39 52 61 52 44 41 42 40 37 41 45 40 38 36 37 37 40 41
27 25 39 43 31 20 17 28 25 20 10 7 8 11 35 42 33 37 30 31 24 38 33 40 48 28 39 50 43 56 53 43 43 42 45 44 41 37 36 34 34 39 41
33 44 49 42 32 27 32 28 22 17 12 11 22 36 36 36 43 31 32 41 34 34 37 39 37 33 32 36 36 53 46 51 44 44 42 43 42 39 36 34 33 36 38
44 47 43 30 32 33 30 27 28 31 29 27 38 35 35 44 16 34 39 33 28 48 37 35 36 33 37 34 36 40 55 53 53 47 37 34 35 35 38 33 31 33 35
46 45 38 40 39 30 34 34 31 16 18 18 18 19 10 10 41 9 35 23 52 37 44 41 38 32 33 35 34 33 50 60 52 49 47 39 38 36 39 37 33 35 36
45 44 43 41 36 31 26 25 17 13 9 13 22 17 16 23 17 33 26 43 34 53 45 41 40 34 34 33 35 39 53 62 56 50 50 48 44 40 41 40 37 36 37
42 36 35 31 25 27 28 24 24 15 10 18 24 22 23 22 27 40 52 56 52 43 42 39 32 34 34 38 37 41 60 64 54 54 55 51 47 43 40 41 38 38 39
28 31 28 25 23 27 27 22 11 13 18 25 31 32 23 25 28 32 42 50 49 45 47 39 36 37 38 35 40 54 69 58 66 55 58 57 49 46 43 41 38 36 39
36 31 35 34 36 28 15 13 11 15 23 29 34 33 30 24 25 31 34 46 47 44 36 34 35 33 39 40 40 57 60 52 66 67 66 55 50 49 46 42 40 38 37
34 40 35 30 25 20 13 5 16 18 30 32 35 35 31 26 23 26 32 39 47 42 36 39 29 37 41 42 48 56 47 54 60 59 53 55 57 53 47 46 43 39 36
34 38 35 25 18 10 0 11 20 25 30 36 35 32 30 23 23 26 26 31 37 49 44 41 43 39 43 44 51 52 61 63 57 49 61 59 55 53 49 47 45 41 33
40 38 27 23 17 7 4 15 21 33 33 30 29 34 28 22 26 24 28 29 31 39 46 40 42 44 43 43 43 59 62 58 47 44 58 61 55 54 48 45 40 41 36
38 31 25 20 14 3 14 25 30 31 32 34 32 26 25 27 26 27 29 28 32 33 40 43 42 43 45 48 57 54 58 53 48 46 49 59 54 50 44 40 38 41 37
32 27 20 14 7 7 21 27 20 30 32 31 22 22 23 25 29 28 28 33 35 36 39 49 45 46 46 51 54 55 62 54 60 47 55 48 52 43 46 41 40 33 35
26 21 16 5 4 16 22 26 25 28 28 21 23 23 25 26 27 29 32 33 37 36 36 42 49 44 48 50 54 56 59 58 53 55 50 41 35 42 43 36 29 30 35
23 23 16 4 15 23 29 24 22 20 22 19 21 23 25 25 31 34 32 33 35 41 39 40 45 50 47 47 51 60 69 66 64 51 40 44 47 37 35 31 38 36 39
23 17 10 9 15 26 23 27 22 18 19 21 21 21 24 34 39 41 38 36 40 37 36 37 40 46 46 53 63 70 84 85 61 42 43 51 44 30 30 31 35 41 48
21 10 2 7 16 24 24 24 27 20 20 18 20 21 24 21 41 41 39 44 34 40 43 41 40 46 53 65 67 79 86 69 57 42 58 55 41 34 26 30 37 46 48
5 1 6 11 18 19 26 25 22 15 18 24 21 23 24 29 42 46 47 36 30 31 33 35 35 48 59 71 74 83 73 54 55 60 49 52 37 34 24 32 38 49 44
5 4 3 9 14 18 18 20 21 31 23 25 20 24 27 33 43 45 43 34 30 23 32 33 42 51 54 60 69 72 56 51 56 62 38 49 25 33 30 31 28 35 40
7 8 4 4 9 16 24 24 18 18 18 23 28 38 38 38 43 41 39 36 37 32 34 37 38 41 54 61 62 49 43 52 64 67 40 20 30 36 26 14 26 36 38
14 15 13 15 19 21 25 26 20 20 16 16 22 34 43 45 42 38 36 38 44 48 50 46 38 42 48 41 41 40 44 49 51 54 25 45 36 19 24 8 28 35 36
Wind_Direction_850mb
202 203 211 203 225 242 263 279 260 295 292 314 326 328 322 334 329 325 318 312 322 326 327 325 326 326 323 318 318 314 311 305 301 300 297 294 293 295 291 287 291 294 291
225 209 217 217 225 236 245 246 250 249 303 326 338 334 337 328 336 328 332 323 328 327 326 327 330 330 322 318 318 314 310 310 304 299 300 298 296 291 291 291 289 292 293
228 197 209 214 225 224 219 215 250 273 339 351 346 354 340 325 322 331 346 328 326 332 322 332 326 327 331 337 327 317 316 310 307 304 300 298 300 300 298 293 290 290 289
225 217 217 224 225 213 218 235 231 193 61 34 31 6 340 348 319 339 320 324 327 331 332 323 316 335 336 332 331 323 321 318 314 308 304 301 304 304 299 294 291 287 287
214 207 218 216 218 200 196 180 201 152 47 71 39 38 11 1 334 324 321 324 329 320 330 319 322 342 330 325 335 331 329 318 319 313 309 306 307 305 304 299 291 287 282
210 193 219 230 218 209 224 235 229 225 250 338 73 14 20 360 328 304 311 324 322 311 322 323 330 321 316 321 331 324 324 322 323 316 309 308 308 309 307 299 291 285 282
209 215 225 235 221 235 245 242 245 258 277 315 299 295 336 355 317 311 332 315 320 300 339 318 327 321 321 324 322 314 320 332 327 314 312 309 310 308 306 307 298 291 286
216 221 232 225 231 238 243 249 262 264 270 299 319 319 326 325 272 296 307 311 320 314 319 321 326 316 322 326 318 330 314 331 337 337 335 324 315 309 307 301 303 292 286
223 232 232 239 239 246 261 263 255 256 274 301 320 342 353 297 312 305 317 310 322 321 324 317 324 316 321 322 320 327 312 328 335 341 341 326 319 317 306 299 295 295 287
229 234 232 239 238 238 249 230 205 260 278 319 329 351 315 294 313 314 305 314 313 312 320 323 324 320 320 319 322 321 310 327 333 341 344 338 325 313 311 303 294 290 291
233 240 232 233 245 236 219 224 236 242 306 331 327 330 320 317 307 303 306 315 321 322 320 323 318 322 318 323 323 315 311 327 332 336 339 336 333 323 311 307 302 289 285
217 217 216 219 212 202 216 220 245 292 299 320 319 320 317 314 316 312 310 314 316 319 321 324 322 324 323 323 324 313 316 333 331 333 330 331 332 328 319 306 301 295 282
217 225 228 220 213 222 206 242 247 295 312 314 318 321 319 313 310 309 311 312 315 319 321 320 323 321 323 323 320 315 327 327 318 320 321 323 329 327 324 319 305 296 291
222 219 221 200 184 183 219 279 297 300 310 317 317 317 317 317 315 315 310 312 314 317 319 322 316 326 320 320 320 314 323 317 313 323 326 324 326 324 325 321 319 303 291
219 211 186 170 188 178 148 294 287 307 315 318 322 322 323 318 318 303 308 309 311 313 313 315 312 314 315 315 322 325 318 314 318 330 320 319 322 322 322 321 319 320 302
205 170 168 180 163 141 225 283 317 312 320 325 328 318 322 322 315 316 307 304 303 303 305 307 309 313 312 318 322 317 314 320 326 325 312 312 323 320 316 317 320 321 324
171 156 149 142 130 85 307 307 305 310 324 327 329 325 330 322 318 317 307 310 304 303 303 307 309 313 321 324 318 323 324 321 319 314 318 311 314 321 317 317 318 320 320
146 146 131 122 119 284 307 299 316 313 322 331 325 323 323 324 320 326 313 309 311 309 309 312 316 318 317 324 323 325 321 325 316 320 308 326 320 315 317 322 320 324 328
118 112 116 159 302 294 307 312 317 319 329 330 320 325 327 326 323 313 318 319 313 305 311 314 310 317 323 321 322 322 320 322 323 323 325 316 302 307 314 329 334 328 312
143 134 141 215 276 283 282 296 308 321 313 317 324 332 326 324 320 321 323 322 311 311 319 314 313 319 320 321 320 322 324 328 327 332 336 323 325 321 335 337 316 317 316
141 139 155 236 265 284 308 313 315 314 324 332 334 331 322 333 323 329 321 313 316 315 316 317 315 316 318 320 321 320 320 327 332 338 328 337 338 352 339 323 308 312 315
148 134 161 292 302 316 321 332 340 342 326 336 336 329 330 330 298 303 300 306 321 322 316 316 311 308 311 317 316 315 321 324 324 335 332 338 346 338 336 323 312 311 318
125 332 316 313 307 336 347 347 346 337 350 335 346 321 333 323 325 327 328 336 330 319 318 318 312 314 311 313 314 316 319 317 316 321 328 320 332 330 325 314 311 312 319
152 97 13 24 317 1 10 8 12 15 343 342 343 339 344 330 328 332 334 339 343 348 331 318 305 306 311 310 311 316 315 318 314 318 320 305 316 330 335 316 300 317 320
107 98 58 71 354 30 25 28 42 19 333 342 331 335 346 342 341 342 347 344 346 337 320 320 323 326 309 309 313 319 325 317 320 321 336 299 322 320 325 316 338 325 327
100 92 77 61 36 15 21 25 24 7 6 6 343 334 336 333 343 349 355 351 344 336 339 337 329 305 312 325 339 338 332 324 322 325 306 319 326 353 328 326 344 333 336